Time,TemperatureF,DewpointF,PressureIn,WindDirection,WindDirectionDegrees,WindSpeedMPH,WindSpeedGustMPH,Humidity,HourlyPrecipIn,Conditions,Clouds,dailyrainin,SoftwareType,DateUTC
2013-01-03 00:11:00,22.0,19.0,30.23,WNW,302,1.0,3.0,89,0.00,,,0.00,weatherlink.com 1.10,2013-01-03 06:11:00,
2013-01-03 00:26:00,22.1,19.0,30.23,WNW,291,0.0,4.0,89,0.00,,,0.00,weatherlink.com 1.10,2013-01-03 06:26:00,
2013-01-03 00:41:00,21.9,19.0,30.24,North,5,3.0,7.0,88,0.00,,,0.00,weatherlink.com 1.10,2013-01-03 06:41:00,
2013-01-03 00:56:00,21.8,19.0,30.24,NNW,343,3.0,7.0,87,0.00,,,0.00,weatherlink.com 1.10,2013-01-03 06:56:00,
2013-01-03 01:11:00,21.7,18.0,30.24,NW,317,4.0,6.0,87,0.00,,,0.00,weatherlink.com 1.10,2013-01-03 07:11:00,
2013-01-03 01:26:00,21.3,18.0,30.24,WNW,296,2.0,8.0,87,0.00,,,0.00,weatherlink.com 1.10,2013-01-03 07:26:00,
2013-01-03 01:41:00,20.9,17.0,30.25,WNW,292,3.0,6.0,86,0.00,,,0.00,weatherlink.com 1.10,2013-01-03 07:41:00,
2013-01-03 01:56:00,20.7,17.0,30.26,NW,305,4.0,7.0,86,0.00,,,0.00,weatherlink.com 1.10,2013-01-03 07:56:00,
2013-01-03 02:11:00,20.2,16.0,30.26,WNW,297,2.0,8.0,85,0.00,,,0.00,weatherlink.com 1.10,2013-01-03 08:11:00,
2013-01-03 02:26:00,19.8,16.0,30.27,NNW,340,0.0,5.0,85,0.00,,,0.00,weatherlink.com 1.10,2013-01-03 08:26:00,
2013-01-03 02:41:00,19.7,16.0,30.28,NW,311,1.0,5.0,86,0.00,,,0.00,weatherlink.com 1.10,2013-01-03 08:41:00,
2013-01-03 02:56:00,19.7,16.0,30.27,West,263,2.0,7.0,86,0.00,,,0.00,weatherlink.com 1.10,2013-01-03 08:56:00,
2013-01-03 03:11:00,19.4,16.0,30.28,West,275,0.0,3.0,86,0.00,,,0.00,weatherlink.com 1.10,2013-01-03 09:11:00,
2013-01-03 03:26:00,19.0,15.0,30.29,WSW,244,4.0,7.0,85,0.00,,,0.00,weatherlink.com 1.10,2013-01-03 09:26:00,
2013-01-03 03:41:00,18.8,15.0,30.29,NW,305,2.0,8.0,84,0.00,,,0.00,weatherlink.com 1.10,2013-01-03 09:41:00,
2013-01-03 03:56:00,18.4,14.0,30.30,NNW,341,4.0,6.0,84,0.00,,,0.00,weatherlink.com 1.10,2013-01-03 09:56:00,
2013-01-03 04:11:00,18.0,14.0,30.30,WNW,282,2.0,10.0,83,0.00,,,0.00,weatherlink.com 1.10,2013-01-03 10:11:00,
2013-01-03 04:26:00,17.7,13.0,30.29,West,281,5.0,6.0,83,0.00,,,0.00,weatherlink.com 1.10,2013-01-03 10:26:00,
2013-01-03 04:41:00,17.3,13.0,30.30,West,277,3.0,9.0,83,0.00,,,0.00,weatherlink.com 1.10,2013-01-03 10:41:00,
2013-01-03 04:56:00,17.2,13.0,30.31,NW,314,3.0,8.0,83,0.00,,,0.00,weatherlink.com 1.10,2013-01-03 10:56:00,
2013-01-03 05:11:00,17.1,13.0,30.32,NW,309,3.0,7.0,83,0.00,,,0.00,weatherlink.com 1.10,2013-01-03 11:11:00,
2013-01-03 05:27:00,16.9,13.0,30.32,WNW,283,2.0,8.0,83,0.00,,,0.00,weatherlink.com 1.10,2013-01-03 11:27:00,
2013-01-03 05:41:00,16.9,13.0,30.33,NW,315,1.0,5.0,83,0.00,,,0.00,weatherlink.com 1.10,2013-01-03 11:41:00,
2013-01-03 05:57:00,16.5,12.0,30.33,WNW,294,2.0,11.0,82,0.00,,,0.00,weatherlink.com 1.10,2013-01-03 11:57:00,
2013-01-03 06:12:00,16.4,12.0,30.34,West,279,5.0,9.0,82,0.00,,,0.00,weatherlink.com 1.10,2013-01-03 12:12:00,
2013-01-03 06:27:00,16.1,12.0,30.35,WNW,290,1.0,8.0,82,0.00,,,0.00,weatherlink.com 1.10,2013-01-03 12:27:00,
2013-01-03 06:42:00,15.8,11.0,30.35,West,276,2.0,12.0,82,0.00,,,0.00,weatherlink.com 1.10,2013-01-03 12:42:00,
2013-01-03 06:57:00,15.4,11.0,30.36,NNW,340,2.0,10.0,82,0.00,,,0.00,weatherlink.com 1.10,2013-01-03 12:57:00,
2013-01-03 07:12:00,15.0,10.0,30.36,West,274,3.0,7.0,82,0.00,,,0.00,weatherlink.com 1.10,2013-01-03 13:12:00,
2013-01-03 07:27:00,14.7,10.0,30.36,NW,312,3.0,7.0,82,0.00,,,0.00,weatherlink.com 1.10,2013-01-03 13:27:00,
2013-01-03 07:42:00,14.4,10.0,30.36,West,270,1.0,6.0,83,0.00,,,0.00,weatherlink.com 1.10,2013-01-03 13:42:00,
2013-01-03 07:57:00,14.0,10.0,30.36,West,275,3.0,9.0,84,0.00,,,0.00,weatherlink.com 1.10,2013-01-03 13:57:00,
2013-01-03 08:12:00,13.7,10.0,30.36,West,267,2.0,7.0,85,0.00,,,0.00,weatherlink.com 1.10,2013-01-03 14:12:00,
2013-01-03 08:27:00,13.5,10.0,30.37,WNW,299,1.0,6.0,86,0.00,,,0.00,weatherlink.com 1.10,2013-01-03 14:27:00,
2013-01-03 08:42:00,13.2,10.0,30.38,WNW,287,0.0,7.0,87,0.00,,,0.00,weatherlink.com 1.10,2013-01-03 14:42:00,
2013-01-03 08:57:00,13.5,11.0,30.39,West,261,1.0,4.0,88,0.00,,,0.00,weatherlink.com 1.10,2013-01-03 14:57:00,
2013-01-03 09:12:00,13.7,11.0,30.39,West,261,2.0,5.0,88,0.00,,,0.00,weatherlink.com 1.10,2013-01-03 15:12:00,
2013-01-03 09:27:00,13.7,11.0,30.39,WSW,255,2.0,5.0,87,0.00,,,0.00,weatherlink.com 1.10,2013-01-03 15:27:00,
2013-01-03 09:42:00,14.0,11.0,30.40,West,279,2.0,4.0,88,0.00,,,0.00,weatherlink.com 1.10,2013-01-03 15:42:00,
2013-01-03 09:57:00,14.1,11.0,30.40,NNW,329,4.0,6.0,87,0.00,,,0.00,weatherlink.com 1.10,2013-01-03 15:57:00,
2013-01-03 10:12:00,14.0,11.0,30.41,WNW,293,4.0,8.0,86,0.00,,,0.00,weatherlink.com 1.10,2013-01-03 16:12:00,
2013-01-03 10:27:00,13.6,10.0,30.42,North,349,2.0,9.0,85,0.00,,,0.00,weatherlink.com 1.10,2013-01-03 16:27:00,
2013-01-03 10:42:00,13.6,10.0,30.42,WSW,255,3.0,9.0,84,0.00,,,0.00,weatherlink.com 1.10,2013-01-03 16:42:00,
2013-01-03 10:58:00,13.6,9.0,30.42,WNW,298,2.0,7.0,83,0.00,,,0.00,weatherlink.com 1.10,2013-01-03 16:58:00,
2013-01-03 11:12:00,13.4,9.0,30.42,West,279,6.0,7.0,81,0.00,,,0.00,weatherlink.com 1.10,2013-01-03 17:12:00,
2013-01-03 11:27:00,13.5,9.0,30.41,West,263,1.0,9.0,81,0.00,,,0.00,weatherlink.com 1.10,2013-01-03 17:27:00,
2013-01-03 11:42:00,13.6,9.0,30.41,West,259,3.0,6.0,81,0.00,,,0.00,weatherlink.com 1.10,2013-01-03 17:42:00,
2013-01-03 11:57:00,13.6,9.0,30.40,NW,324,2.0,5.0,80,0.00,,,0.00,weatherlink.com 1.10,2013-01-03 17:57:00,
2013-01-03 12:12:00,13.8,9.0,30.40,West,272,2.0,6.0,80,0.00,,,0.00,weatherlink.com 1.10,2013-01-03 18:12:00,
2013-01-03 12:27:00,13.6,8.0,30.39,WSW,247,2.0,8.0,78,0.00,,,0.00,weatherlink.com 1.10,2013-01-03 18:27:00,
2013-01-03 12:42:00,14.3,8.0,30.39,WSW,248,3.0,7.0,77,0.00,,,0.00,weatherlink.com 1.10,2013-01-03 18:42:00,
2013-01-03 12:57:00,15.2,9.0,30.38,West,275,2.0,8.0,77,0.00,,,0.00,weatherlink.com 1.10,2013-01-03 18:57:00,
2013-01-03 13:12:00,15.3,9.0,30.38,West,279,1.0,8.0,76,0.00,,,0.00,weatherlink.com 1.10,2013-01-03 19:12:00,
2013-01-03 13:58:00,14.4,7.0,30.39,West,281,1.0,8.0,73,0.00,,,0.00,weatherlink.com 1.10,2013-01-03 19:58:00,
2013-01-03 14:13:00,14.3,7.0,30.39,West,273,3.0,8.0,71,0.00,,,0.00,weatherlink.com 1.10,2013-01-03 20:13:00,
2013-01-03 14:28:00,14.4,7.0,30.39,WSW,249,3.0,8.0,71,0.00,,,0.00,weatherlink.com 1.10,2013-01-03 20:28:00,
2013-01-03 14:43:00,14.5,6.0,30.40,West,263,2.0,7.0,70,0.00,,,0.00,weatherlink.com 1.10,2013-01-03 20:43:00,
2013-01-03 14:58:00,14.9,6.0,30.40,WNW,290,4.0,8.0,69,0.00,,,0.00,weatherlink.com 1.10,2013-01-03 20:58:00,
2013-01-03 15:13:00,14.8,6.0,30.40,WNW,292,3.0,10.0,69,0.00,,,0.00,weatherlink.com 1.10,2013-01-03 21:13:00,
2013-01-03 15:28:00,14.9,7.0,30.39,WSW,249,2.0,6.0,70,0.00,,,0.00,weatherlink.com 1.10,2013-01-03 21:28:00,
2013-01-03 15:58:00,15.6,7.0,30.39,WSW,251,5.0,7.0,69,0.00,,,0.00,weatherlink.com 1.10,2013-01-03 21:58:00,
2013-01-03 16:13:00,15.0,7.0,30.40,West,277,5.0,8.0,71,0.00,,,0.00,weatherlink.com 1.10,2013-01-03 22:13:00,
2013-01-03 16:28:00,14.3,7.0,30.39,SW,234,1.0,7.0,73,0.00,,,0.00,weatherlink.com 1.10,2013-01-03 22:28:00,
2013-01-03 16:43:00,13.9,7.0,30.39,SSW,202,2.0,6.0,74,0.00,,,0.00,weatherlink.com 1.10,2013-01-03 22:43:00,
2013-01-03 16:58:00,13.6,7.0,30.39,WNW,283,1.0,6.0,76,0.00,,,0.00,weatherlink.com 1.10,2013-01-03 22:58:00,
2013-01-03 17:13:00,13.2,7.0,30.39,SW,217,0.0,4.0,76,0.00,,,0.00,weatherlink.com 1.10,2013-01-03 23:13:00,
2013-01-03 17:28:00,12.9,7.0,30.39,WSW,244,4.0,5.0,77,0.00,,,0.00,weatherlink.com 1.10,2013-01-03 23:28:00,
2013-01-03 17:43:00,12.7,7.0,30.38,SSW,203,1.0,5.0,78,0.00,,,0.00,weatherlink.com 1.10,2013-01-03 23:43:00,
2013-01-03 17:58:00,12.4,7.0,30.38,SSW,205,2.0,4.0,79,0.00,,,0.00,weatherlink.com 1.10,2013-01-03 23:58:00,
2013-01-03 18:13:00,12.2,7.0,30.38,WSW,247,2.0,4.0,81,0.00,,,0.00,weatherlink.com 1.10,2013-01-04 00:13:00,
2013-01-03 18:28:00,12.1,8.0,30.37,SSW,207,4.0,4.0,82,0.00,,,0.00,weatherlink.com 1.10,2013-01-04 00:28:00,
2013-01-03 18:43:00,12.0,8.0,30.37,SW,233,1.0,3.0,82,0.00,,,0.00,weatherlink.com 1.10,2013-01-04 00:43:00,
2013-01-03 18:58:00,12.1,8.0,30.36,SSW,209,0.0,4.0,83,0.00,,,0.00,weatherlink.com 1.10,2013-01-04 00:58:00,
2013-01-03 19:13:00,12.1,8.0,30.36,SW,229,2.0,5.0,84,0.00,,,0.00,weatherlink.com 1.10,2013-01-04 01:13:00,
2013-01-03 19:28:00,12.1,8.0,30.34,SSW,207,1.0,6.0,84,0.00,,,0.00,weatherlink.com 1.10,2013-01-04 01:28:00,
2013-01-03 19:43:00,12.4,9.0,30.34,SSW,209,3.0,6.0,85,0.00,,,0.00,weatherlink.com 1.10,2013-01-04 01:43:00,
2013-01-03 19:58:00,12.6,9.0,30.33,SSW,209,1.0,8.0,85,0.00,,,0.00,weatherlink.com 1.10,2013-01-04 01:58:00,
2013-01-03 20:13:00,13.0,10.0,30.32,SW,225,1.0,6.0,86,0.00,,,0.00,weatherlink.com 1.10,2013-01-04 02:13:00,
2013-01-03 20:28:00,13.5,10.0,30.31,WSW,238,3.0,9.0,86,0.00,,,0.00,weatherlink.com 1.10,2013-01-04 02:28:00,
2013-01-03 20:43:00,13.8,10.0,30.30,SSW,196,5.0,10.0,85,0.00,,,0.00,weatherlink.com 1.10,2013-01-04 02:43:00,
2013-01-03 20:58:00,14.1,11.0,30.30,WSW,240,4.0,8.0,86,0.00,,,0.00,weatherlink.com 1.10,2013-01-04 02:58:00,
2013-01-03 21:13:00,14.3,11.0,30.29,SSW,200,5.0,7.0,86,0.00,,,0.00,weatherlink.com 1.10,2013-01-04 03:13:00,
2013-01-03 21:28:00,14.6,11.0,30.29,SW,219,1.0,8.0,86,0.00,,,0.00,weatherlink.com 1.10,2013-01-04 03:28:00,
2013-01-03 21:43:00,14.6,11.0,30.28,South,189,1.0,8.0,86,0.00,,,0.00,weatherlink.com 1.10,2013-01-04 03:43:00,
2013-01-03 21:58:00,14.8,11.0,30.28,West,277,1.0,8.0,86,0.00,,,0.00,weatherlink.com 1.10,2013-01-04 03:58:00,
2013-01-03 22:13:00,14.9,12.0,30.28,SW,214,3.0,7.0,87,0.00,,,0.00,weatherlink.com 1.10,2013-01-04 04:13:00,
2013-01-03 22:28:00,15.0,12.0,30.27,South,182,2.0,9.0,87,0.00,,,0.00,weatherlink.com 1.10,2013-01-04 04:28:00,
2013-01-03 22:43:00,15.1,12.0,30.27,SSW,211,1.0,7.0,87,0.00,,,0.00,weatherlink.com 1.10,2013-01-04 04:43:00,
2013-01-03 22:58:00,15.2,12.0,30.27,SSW,199,3.0,9.0,87,0.00,,,0.00,weatherlink.com 1.10,2013-01-04 04:58:00,
2013-01-03 23:14:00,15.4,12.0,30.27,SSE,163,2.0,6.0,87,0.00,,,0.00,weatherlink.com 1.10,2013-01-04 05:14:00,
2013-01-03 23:28:00,15.5,12.0,30.26,SW,234,4.0,7.0,87,0.00,,,0.00,weatherlink.com 1.10,2013-01-04 05:28:00,
2013-01-03 23:43:00,15.7,13.0,30.25,SSW,195,4.0,7.0,88,0.00,,,0.00,weatherlink.com 1.10,2013-01-04 05:43:00,
2013-01-03 23:58:00,15.9,13.0,30.25,SW,221,6.0,7.0,87,0.00,,,0.00,weatherlink.com 1.10,2013-01-04 05:58:00,